Location: *
(37.5724°S, 58.0067°E)
Time: 06:30:22
(UTC+00:00)

Cosmos 1933 Rocket - Pass Details

Date: 23 January 2021
Orbit: 607 x 630 km, 82.5° (Epoch: 06 March)

Event Time Altitude Azimuth Distance (km) Brightness Sun altitude
Rises 18:51:43 0° 178° (S) 2,959 8.0 -29.5°
Reaches altitude 10° 18:54:08 10° 169° (S) 2,042 6.8 -29.7°
Enters shadow 18:56:32 26° 146° (SE) 1,277 5.4 -29.9°
